Погода в Толоконцеве

Россия / Омская область     56°27′10″N   71°12′35″E
темп.,
°C
ветер,
м/с
пор.,
м/с
влажн.,
%
обл.,
%
осадки,
мм/ч
давл.,
гПа
погр.,
м
13 августа, сб
сб1300:00+13з310941 0.1 1011276
03:00+11зюз39976 0.0 1010196
06:00+11зюз39957 0.0 1010190
09:00+17зюз487296 0.0 1008317
12:00+20зюз5106190 0.0 10071273
15:00+22зюз61059100 0.3 10051744
18:00+19з510800 2.1 10051079
21:00+15зсз412880 1.4 1005420
14 августа, вс
вс1400:00+13зсз514860 1.5 1006692
03:00+12зсз6138665 0.0 1008827
06:00+12зсз61183100 0.0 1009841
09:00+14сз51169100 0.0 1011914
12:00+18сз694780 0.0 10112106
15:00+16сз4953100 0.0 10121790
18:00+15сз59665 0.4 10131086
21:00+11зсз388562 0.4 1014168
15 августа, пн
пн1500:00+10зсз311895 0.4 1015293
03:00+9сз310905 0.0 1016326
06:00+7зсз38957 0.0 1017212
09:00+12сз59601 0.0 1018998
12:00+15сз69435 0.0 10181618
15:00+17сз69377 0.0 10182060
18:00+17ссз4842100 0.0 10182383
21:00+11ссз37625 0.0 1019139
16 августа, вт
вт1600:00+7ссв22765 0.0 102025
03:00+6ссз248253 0.0 102064
06:00+5зсз228210 0.0 102138
09:00+12зсз345755 0.0 1020383
12:00+16з35455 0.0 10191555
15:00+18з574096 0.0 10172296
18:00+18з375075 0.0 10161418
21:00+12з399194 0.8 1015235
17 августа, ср
ср1700:00+11зсз399410 1.3 1014235
03:00+10зсз4119096 0.0 1014334
06:00+7сз310960 0.0 1014367
09:00+11ссз59755 0.0 1016642
12:00+12ссз686154 0.4 10161255
15:00+13сз695675 0.1 10161656
18:00+11ссз587045 0.6 10171246
21:00+8ссз389398 0.3 1018246